User: anonymous   Login
Location: Fort Wayne
(41.1310°N, 85.1290°W)
Time: 12:55:52
(UTC-04:00)
Language:

Cosmos 1000 Rocket - Orbit

View from above orbital plane
View from above orbital plane
View from above satellite
View from above satellite

Ground track
Ground track

The orbit data is extracted from the following two-line orbital elements,

1 10777U 78034B   15181.31233454  .00000030  00000-0  14991-4 0  9996
2 10777 082.9421 044.5079 0027277 050.7450 070.6788 13.77351594871563
Epoch (UTC): 30 June 2015 07:29:45
Eccentricity: 0.0027277
inclination: 82.9421°
perigee height: 953 km
apogee height: 993 km
right ascension of ascending node: 44.5079°
argument of perigee: 50.7450°
revolutions per day: 13.77351594
mean anomaly at epoch: 70.6788°
orbit number at epoch: 87156

The dashed part of the orbit path shows where the satellite is in the earth's shadow,  

DLR